Location: Gwatt
(46.7204°N, 7.6223°E)
Time: 17:22:51
(UTC+00:00)

Cosmos 2026 Rocket - Pass Details

Date: 18 September 2020
Orbit: 940 x 1000 km, 82.9° (Epoch: 28 October)

Event Time Altitude Azimuth Distance (km) Brightness Sun altitude
Rises 19:56:21 0° 351° (N) 3,716 7.6 -23.9°
Reaches altitude 10° 19:58:53 10° 353° (N) 2,769 6.8 -24.3°
Maximum altitude 20:05:16 81° 81° (E) 1,018 3.9 -25.2°
Enters shadow 20:06:54 53° 158° (SSE) 1,211 4.1 -25.5°
